Time,TemperatureF,DewpointF,PressureIn,WindDirection,WindDirectionDegrees,WindSpeedMPH,WindSpeedGustMPH,Humidity,HourlyPrecipIn,Conditions,Clouds,dailyrainin,SolarRadiationWatts/m^2,SoftwareType,DateUTC
2013-05-02 00:01:00,68.2,-5.5,29.85,WNW,292,1.4,1.5,5,0.00,CLR,OVC,0.00,0.0,WeatherDisplay:10.37,2013-05-02 07:01:00,
2013-05-02 00:06:00,68.0,-5.6,29.85,NW,315,2.3,2.3,5,0.00,CLR,OVC,0.00,0.0,WeatherDisplay:10.37,2013-05-02 07:06:00,
2013-05-02 00:11:00,67.8,-5.7,29.85,NNW,338,3.0,3.0,5,0.00,CLR,OVC,0.00,0.0,WeatherDisplay:10.37,2013-05-02 07:11:00,
2013-05-02 00:16:00,67.6,-5.9,29.85,NNE,22,2.3,2.3,5,0.00,CLR,OVC,0.00,0.0,WeatherDisplay:10.37,2013-05-02 07:16:00,
2013-05-02 00:21:00,67.5,-6.0,29.85,NW,315,4.6,4.6,5,0.00,CLR,OVC,0.00,0.0,WeatherDisplay:10.37,2013-05-02 07:21:00,
2013-05-02 00:26:00,67.5,-6.0,29.86,NW,315,3.5,3.5,5,0.00,CLR,OVC,0.00,0.0,WeatherDisplay:10.37,2013-05-02 07:26:00,
2013-05-02 00:31:00,67.3,-6.1,29.86,NW,315,3.8,3.8,5,0.00,CLR,OVC,0.00,0.0,WeatherDisplay:10.37,2013-05-02 07:31:00,
2013-05-02 00:36:00,67.3,-6.1,29.86,NNE,22,4.6,4.6,5,0.00,CLR,OVC,0.00,0.0,WeatherDisplay:10.37,2013-05-02 07:36:00,
2013-05-02 00:41:00,67.3,-6.1,29.86,NE,45,2.8,2.8,5,0.00,CLR,OVC,0.00,0.0,WeatherDisplay:10.37,2013-05-02 07:41:00,
2013-05-02 00:46:00,67.1,-6.2,29.87,NW,315,4.8,4.8,5,0.00,CLR,OVC,0.00,0.0,WeatherDisplay:10.37,2013-05-02 07:46:00,
2013-05-02 00:51:00,67.1,-6.2,29.87,NNE,22,2.3,2.6,5,0.00,CLR,OVC,0.00,0.0,WeatherDisplay:10.37,2013-05-02 07:51:00,
2013-05-02 00:56:00,67.1,-6.2,29.87,NNE,22,1.2,1.8,5,0.00,CLR,OVC,0.00,0.0,WeatherDisplay:10.37,2013-05-02 07:56:00,
2013-05-02 01:01:00,66.7,-6.5,29.87,NNW,338,4.6,4.6,5,0.00,CLR,OVC,0.00,0.0,WeatherDisplay:10.37,2013-05-02 08:01:00,
2013-05-02 01:06:00,66.6,-6.6,29.89,NW,315,3.5,3.5,5,0.00,CLR,OVC,0.00,0.0,WeatherDisplay:10.37,2013-05-02 08:06:00,
2013-05-02 01:11:00,66.4,-6.8,29.89,NNW,338,2.6,2.9,5,0.00,CLR,OVC,0.00,0.0,WeatherDisplay:10.37,2013-05-02 08:11:00,
2013-05-02 01:16:00,66.4,-6.8,29.89,NW,315,3.5,3.5,5,0.00,CLR,OVC,0.00,0.0,WeatherDisplay:10.37,2013-05-02 08:16:00,
2013-05-02 01:21:00,66.0,-7.0,29.89,NW,315,2.3,2.3,5,0.00,CLR,OVC,0.00,0.0,WeatherDisplay:10.37,2013-05-02 08:21:00,
2013-05-02 01:26:00,65.8,-7.1,29.88,NNE,22,2.3,2.3,5,0.00,CLR,OVC,0.00,0.0,WeatherDisplay:10.37,2013-05-02 08:26:00,
2013-05-02 01:31:00,65.7,-7.3,29.88,NW,315,2.3,2.3,5,0.00,CLR,OVC,0.00,0.0,WeatherDisplay:10.37,2013-05-02 08:31:00,
2013-05-02 01:36:00,65.5,-7.4,29.88,North,0,3.5,3.5,5,0.00,CLR,OVC,0.00,0.0,WeatherDisplay:10.37,2013-05-02 08:36:00,
2013-05-02 01:41:00,65.5,-7.4,29.88,NW,315,3.5,3.5,5,0.00,CLR,OVC,0.00,0.0,WeatherDisplay:10.37,2013-05-02 08:41:00,
2013-05-02 01:46:00,65.3,-7.5,29.89,WNW,292,2.3,2.4,5,0.00,CLR,OVC,0.00,0.0,WeatherDisplay:10.37,2013-05-02 08:46:00,
2013-05-02 01:51:00,65.3,-7.5,29.89,NW,315,2.3,2.3,5,0.00,CLR,OVC,0.00,0.0,WeatherDisplay:10.37,2013-05-02 08:51:00,
2013-05-02 01:56:00,64.9,-7.8,29.89,NW,315,2.3,2.3,5,0.00,CLR,OVC,0.00,0.0,WeatherDisplay:10.37,2013-05-02 08:56:00,
2013-05-02 02:01:00,64.8,-7.9,29.89,WNW,292,2.3,2.3,5,0.00,CLR,OVC,0.00,0.0,WeatherDisplay:10.37,2013-05-02 09:01:00,
2013-05-02 02:06:00,64.8,-7.9,29.89,NW,315,2.3,2.3,5,0.00,CLR,OVC,0.00,0.0,WeatherDisplay:10.37,2013-05-02 09:06:00,
2013-05-02 02:11:00,64.6,-8.0,29.89,WNW,292,1.2,1.2,5,0.00,CLR,OVC,0.00,0.0,WeatherDisplay:10.37,2013-05-02 09:11:00,
2013-05-02 02:16:00,64.6,-8.0,29.89,NNW,338,2.3,2.3,5,0.00,CLR,OVC,0.00,0.0,WeatherDisplay:10.37,2013-05-02 09:16:00,
2013-05-02 02:21:00,64.0,-8.4,29.89,NNW,338,1.2,1.4,5,0.00,CLR,OVC,0.00,0.0,WeatherDisplay:10.37,2013-05-02 09:21:00,
2013-05-02 02:26:00,63.9,-8.6,29.89,NNW,338,1.5,1.5,5,0.00,CLR,OVC,0.00,0.0,WeatherDisplay:10.37,2013-05-02 09:26:00,
2013-05-02 02:31:00,63.9,-8.6,29.89,NNW,338,2.3,2.3,5,0.00,CLR,OVC,0.00,0.0,WeatherDisplay:10.37,2013-05-02 09:31:00,
2013-05-02 02:36:00,63.7,-8.7,29.89,NNW,338,1.2,1.2,5,0.00,CLR,OVC,0.00,0.0,WeatherDisplay:10.37,2013-05-02 09:36:00,
2013-05-02 02:41:00,63.3,-8.9,29.89,NW,315,2.3,2.3,5,0.00,CLR,OVC,0.00,0.0,WeatherDisplay:10.37,2013-05-02 09:41:00,
2013-05-02 02:46:00,63.3,-8.9,29.89,NNW,338,1.2,1.2,5,0.00,CLR,OVC,0.00,0.0,WeatherDisplay:10.37,2013-05-02 09:46:00,
2013-05-02 02:51:00,63.1,-9.1,29.89,NW,315,2.3,2.3,5,0.00,CLR,OVC,0.00,0.0,WeatherDisplay:10.37,2013-05-02 09:51:00,
2013-05-02 02:56:00,63.0,-9.2,29.89,NW,315,3.5,3.5,5,0.00,CLR,OVC,0.00,0.0,WeatherDisplay:10.37,2013-05-02 09:56:00,
2013-05-02 03:01:00,63.0,-9.2,29.89,NW,315,2.3,2.3,5,0.00,CLR,OVC,0.00,0.0,WeatherDisplay:10.37,2013-05-02 10:01:00,
2013-05-02 03:06:00,63.0,-9.2,29.89,WNW,292,2.3,2.3,5,0.00,CLR,OVC,0.00,0.0,WeatherDisplay:10.37,2013-05-02 10:06:00,
2013-05-02 03:11:00,63.0,-9.2,29.89,NNE,22,1.2,1.2,5,0.00,CLR,OVC,0.00,0.0,WeatherDisplay:10.37,2013-05-02 10:11:00,
2013-05-02 03:16:00,63.0,-9.2,29.89,WSW,248,1.2,1.2,5,0.00,CLR,OVC,0.00,0.0,WeatherDisplay:10.37,2013-05-02 10:16:00,
2013-05-02 03:21:00,62.8,-9.3,29.89,NW,315,1.7,1.7,5,0.00,CLR,OVC,0.00,0.0,WeatherDisplay:10.37,2013-05-02 10:21:00,
2013-05-02 03:26:00,62.6,-9.5,29.90,NW,315,1.2,1.2,5,0.00,CLR,OVC,0.00,0.0,WeatherDisplay:10.37,2013-05-02 10:26:00,
2013-05-02 03:31:00,62.6,-9.5,29.90,NW,315,1.2,1.2,5,0.00,CLR,OVC,0.00,0.0,WeatherDisplay:10.37,2013-05-02 10:31:00,
2013-05-02 03:36:00,62.4,-9.6,29.90,NNW,338,1.2,1.2,5,0.00,CLR,OVC,0.00,0.0,WeatherDisplay:10.37,2013-05-02 10:36:00,
2013-05-02 03:41:00,62.1,-9.8,29.90,NW,315,2.0,2.0,5,0.00,CLR,OVC,0.00,0.0,WeatherDisplay:10.37,2013-05-02 10:41:00,
2013-05-02 03:46:00,61.7,-10.1,29.91,NNE,22,2.3,2.3,5,0.00,CLR,OVC,0.00,0.0,WeatherDisplay:10.37,2013-05-02 10:46:00,
2013-05-02 03:51:00,61.3,-10.4,29.91,WNW,292,2.3,2.3,5,0.00,CLR,OVC,0.00,0.0,WeatherDisplay:10.37,2013-05-02 10:51:00,
2013-05-02 03:56:00,61.2,-10.5,29.91,NW,315,2.3,2.3,5,0.00,CLR,OVC,0.00,0.0,WeatherDisplay:10.37,2013-05-02 10:56:00,
2013-05-02 04:01:00,61.0,-10.6,29.91,NNW,338,1.2,1.7,5,0.00,CLR,OVC,0.00,0.0,WeatherDisplay:10.37,2013-05-02 11:01:00,
2013-05-02 04:06:00,60.8,-10.8,29.91,NW,315,2.9,2.9,5,0.00,CLR,OVC,0.00,0.0,WeatherDisplay:10.37,2013-05-02 11:06:00,
2013-05-02 04:11:00,60.8,-10.8,29.91,NW,315,2.3,2.3,5,0.00,CLR,OVC,0.00,0.0,WeatherDisplay:10.37,2013-05-02 11:11:00,
2013-05-02 04:16:00,60.6,3.6,29.91,NW,315,3.5,3.5,10,0.00,CLR,OVC,0.00,0.0,WeatherDisplay:10.37,2013-05-02 11:16:00,
2013-05-02 04:21:00,60.4,3.5,29.91,NW,315,2.3,2.3,10,0.00,CLR,OVC,0.00,0.0,WeatherDisplay:10.37,2013-05-02 11:21:00,
2013-05-02 04:26:00,60.3,3.4,29.91,NW,315,2.5,2.5,10,0.00,CLR,OVC,0.00,0.0,WeatherDisplay:10.37,2013-05-02 11:26:00,
2013-05-02 04:31:00,59.9,3.1,29.91,NW,315,2.3,2.3,10,0.00,CLR,OVC,0.00,0.0,WeatherDisplay:10.37,2013-05-02 11:31:00,
2013-05-02 04:36:00,59.7,2.9,29.91,NW,315,2.3,2.4,10,0.00,CLR,OVC,0.00,0.0,WeatherDisplay:10.37,2013-05-02 11:36:00,
2013-05-02 04:41:00,59.5,2.8,29.91,NW,315,2.3,2.5,10,0.00,CLR,OVC,0.00,0.0,WeatherDisplay:10.37,2013-05-02 11:41:00,
2013-05-02 04:46:00,59.5,2.8,29.91,NW,315,2.3,2.3,10,0.00,CLR,OVC,0.00,0.0,WeatherDisplay:10.37,2013-05-02 11:46:00,
2013-05-02 04:51:00,59.4,2.7,29.91,NW,315,2.3,2.3,10,0.00,CLR,OVC,0.00,0.0,WeatherDisplay:10.37,2013-05-02 11:51:00,
2013-05-02 04:56:00,59.2,2.5,29.91,NW,315,2.4,2.4,10,0.00,CLR,OVC,0.00,0.0,WeatherDisplay:10.37,2013-05-02 11:56:00,
2013-05-02 05:01:00,59.2,2.5,29.91,NNE,22,3.5,3.5,10,0.00,CLR,OVC,0.00,0.0,WeatherDisplay:10.37,2013-05-02 12:01:00,
2013-05-02 05:06:00,59.0,2.4,29.92,NW,315,3.5,3.5,10,0.00,CLR,OVC,0.00,0.0,WeatherDisplay:10.37,2013-05-02 12:06:00,
2013-05-02 05:11:00,59.0,4.5,29.92,NNW,338,4.3,4.3,11,0.00,CLR,OVC,0.00,0.0,WeatherDisplay:10.37,2013-05-02 12:11:00,
2013-05-02 05:16:00,58.8,6.2,29.92,NNW,338,5.9,5.9,12,0.00,CLR,OVC,0.00,0.0,WeatherDisplay:10.37,2013-05-02 12:16:00,
2013-05-02 05:21:00,58.8,6.2,29.92,NNW,338,4.6,4.6,12,0.00,CLR,OVC,0.00,0.0,WeatherDisplay:10.37,2013-05-02 12:21:00,
2013-05-02 05:26:00,58.6,6.1,29.92,NNW,338,4.6,4.6,12,0.00,CLR,OVC,0.00,0.0,WeatherDisplay:10.37,2013-05-02 12:26:00,
2013-05-02 05:31:00,58.6,6.1,29.92,NNW,338,4.7,4.7,12,0.00,CLR,OVC,0.00,0.0,WeatherDisplay:10.37,2013-05-02 12:31:00,
2013-05-02 05:36:00,58.6,6.1,29.92,NW,315,5.8,5.8,12,0.00,CLR,OVC,0.00,0.0,WeatherDisplay:10.37,2013-05-02 12:36:00,
2013-05-02 05:41:00,58.6,6.1,29.92,WSW,248,4.6,4.6,12,0.00,CLR,OVC,0.00,0.0,WeatherDisplay:10.37,2013-05-02 12:41:00,
2013-05-02 05:46:00,58.5,10.9,29.93,NW,315,3.5,3.5,15,0.00,CLR,OVC,0.00,0.0,WeatherDisplay:10.37,2013-05-02 12:46:00,
2013-05-02 05:51:00,58.3,17.3,29.93,NNW,338,4.6,4.6,20,0.00,CLR,OVC,0.00,0.0,WeatherDisplay:10.37,2013-05-02 12:51:00,
2013-05-02 05:56:00,58.3,18.5,29.93,NNW,338,4.6,4.6,21,0.00,CLR,OVC,0.00,0.0,WeatherDisplay:10.37,2013-05-02 12:56:00,
2013-05-02 06:01:00,58.1,18.3,29.93,NW,315,3.5,3.5,21,0.00,CLR,OVC,0.00,0.0,WeatherDisplay:10.37,2013-05-02 13:01:00,
2013-05-02 06:06:00,57.9,17.0,29.92,NNE,22,4.8,4.8,20,0.00,CLR,OVC,0.00,0.0,WeatherDisplay:10.37,2013-05-02 13:06:00,
2013-05-02 06:11:00,58.1,16.0,29.92,NNW,338,4.9,4.9,19,0.00,CLR,OVC,0.00,0.0,WeatherDisplay:10.37,2013-05-02 13:11:00,
2013-05-02 06:16:00,58.1,13.4,29.92,NNW,338,4.6,4.6,17,0.00,CLR,OVC,0.00,0.0,WeatherDisplay:10.37,2013-05-02 13:16:00,
2013-05-02 06:21:00,58.1,13.4,29.92,NNW,338,4.5,4.5,17,0.00,CLR,OVC,0.00,0.0,WeatherDisplay:10.37,2013-05-02 13:21:00,
2013-05-02 06:26:00,58.1,13.4,29.94,NNW,338,4.6,4.6,17,0.00,CLR,OVC,0.00,0.0,WeatherDisplay:10.37,2013-05-02 13:26:00,
2013-05-02 06:31:00,58.3,13.6,29.94,NW,315,4.9,4.9,17,0.00,CLR,OVC,0.00,0.0,WeatherDisplay:10.37,2013-05-02 13:31:00,
2013-05-02 06:36:00,58.5,13.7,29.94,NNW,338,4.6,4.6,17,0.00,CLR,OVC,0.00,0.0,WeatherDisplay:10.37,2013-05-02 13:36:00,
2013-05-02 06:41:00,58.6,11.0,29.94,NW,315,8.1,8.1,15,0.00,CLR,OVC,0.00,0.0,WeatherDisplay:10.37,2013-05-02 13:41:00,
2013-05-02 06:46:00,58.8,11.2,29.94,NW,315,6.9,6.9,15,0.00,CLR,OVC,0.00,0.0,WeatherDisplay:10.37,2013-05-02 13:46:00,
2013-05-02 06:51:00,59.0,8.1,29.94,NW,315,6.9,6.9,13,0.00,CLR,OVC,0.00,0.0,WeatherDisplay:10.37,2013-05-02 13:51:00,
2013-05-02 06:56:00,59.2,8.3,29.94,NNW,338,7.2,7.2,13,0.00,CLR,OVC,0.00,0.0,WeatherDisplay:10.37,2013-05-02 13:56:00,
2013-05-02 07:01:00,59.4,8.4,29.94,North,0,6.7,6.7,13,0.00,CLR,OVC,0.00,0.0,WeatherDisplay:10.37,2013-05-02 14:01:00,
2013-05-02 07:06:00,59.5,4.9,29.95,NNE,22,5.8,5.8,11,0.00,CLR,OVC,0.00,0.0,WeatherDisplay:10.37,2013-05-02 14:06:00,
2013-05-02 07:11:00,59.7,5.0,29.95,NNW,338,6.9,6.9,11,0.00,CLR,OVC,0.00,0.0,WeatherDisplay:10.37,2013-05-02 14:11:00,
2013-05-02 07:16:00,59.9,5.2,29.95,NNW,338,5.8,5.8,11,0.00,CLR,OVC,0.00,0.0,WeatherDisplay:10.37,2013-05-02 14:16:00,
2013-05-02 07:21:00,60.1,5.3,29.95,NNW,338,5.5,5.5,11,0.00,CLR,OVC,0.00,0.0,WeatherDisplay:10.37,2013-05-02 14:21:00,
2013-05-02 07:26:00,60.3,5.4,29.96,NNE,22,4.9,4.9,11,0.00,CLR,OVC,0.00,0.0,WeatherDisplay:10.37,2013-05-02 14:26:00,
2013-05-02 07:31:00,60.4,5.6,29.96,NW,315,5.1,5.1,11,0.00,CLR,OVC,0.00,0.0,WeatherDisplay:10.37,2013-05-02 14:31:00,
2013-05-02 07:36:00,60.8,7.8,29.96,NNW,338,4.6,4.6,12,0.00,CLR,OVC,0.00,0.0,WeatherDisplay:10.37,2013-05-02 14:36:00,
2013-05-02 07:41:00,61.3,8.2,29.96,NNE,22,6.1,6.1,12,0.00,CLR,OVC,0.00,0.0,WeatherDisplay:10.37,2013-05-02 14:41:00,
2013-05-02 07:46:00,61.7,8.5,29.95,North,0,5.8,5.8,12,0.00,CLR,OVC,0.00,0.0,WeatherDisplay:10.37,2013-05-02 14:46:00,
2013-05-02 07:51:00,62.6,9.2,29.95,NNW,338,7.4,7.4,12,0.00,CLR,OVC,0.00,0.0,WeatherDisplay:10.37,2013-05-02 14:51:00,
2013-05-02 07:56:00,63.0,9.5,29.95,NW,315,6.9,6.9,12,0.00,CLR,OVC,0.00,0.0,WeatherDisplay:10.37,2013-05-02 14:56:00,
2013-05-02 08:01:00,63.9,10.2,29.95,NE,45,4.6,4.6,12,0.00,CLR,OVC,0.00,0.0,WeatherDisplay:10.37,2013-05-02 15:01:00,
2013-05-02 08:06:00,64.4,8.7,29.96,ENE,68,6.9,6.9,11,0.00,CLR,OVC,0.00,0.0,WeatherDisplay:10.37,2013-05-02 15:06:00,
2013-05-02 08:11:00,65.1,9.2,29.96,NW,315,5.8,5.8,11,0.00,CLR,OVC,0.00,0.0,WeatherDisplay:10.37,2013-05-02 15:11:00,
2013-05-02 08:16:00,65.5,9.5,29.96,NNE,22,4.6,4.6,11,0.00,CLR,OVC,0.00,0.0,WeatherDisplay:10.37,2013-05-02 15:16:00,
2013-05-02 08:21:00,66.6,3.3,29.96,NE,45,9.2,9.2,8,0.00,CLR,OVC,0.00,0.0,WeatherDisplay:10.37,2013-05-02 15:21:00,
2013-05-02 08:26:00,67.1,3.7,29.96,ENE,68,5.8,5.8,8,0.00,CLR,OVC,0.00,0.0,WeatherDisplay:10.37,2013-05-02 15:26:00,
2013-05-02 08:31:00,68.2,9.5,29.96,NW,315,2.8,2.8,10,0.00,CLR,OVC,0.00,0.0,WeatherDisplay:10.37,2013-05-02 15:31:00,
2013-05-02 08:36:00,68.5,9.7,29.96,North,0,3.5,3.5,10,0.00,CLR,OVC,0.00,0.0,WeatherDisplay:10.37,2013-05-02 15:36:00,
2013-05-02 08:41:00,69.4,2.6,29.96,NNE,22,2.3,2.6,7,0.00,CLR,OVC,0.00,0.0,WeatherDisplay:10.37,2013-05-02 15:41:00,
2013-05-02 08:46:00,70.2,-0.2,29.97,NW,315,3.5,3.5,6,0.00,CLR,OVC,0.00,0.0,WeatherDisplay:10.37,2013-05-02 15:46:00,
2013-05-02 08:51:00,70.9,0.3,29.97,NNE,22,4.6,4.6,6,0.00,CLR,OVC,0.00,0.0,WeatherDisplay:10.37,2013-05-02 15:51:00,
2013-05-02 08:56:00,72.3,-2.5,29.97,NW,315,3.8,3.8,5,0.00,CLR,OVC,0.00,0.0,WeatherDisplay:10.37,2013-05-02 15:56:00,
2013-05-02 09:01:00,73.0,-2.0,29.97,NW,315,6.1,6.1,5,0.00,CLR,OVC,0.00,0.0,WeatherDisplay:10.37,2013-05-02 16:01:00,
2013-05-02 09:06:00,73.2,-1.9,29.97,WNW,292,4.6,4.6,5,0.00,CLR,OVC,0.00,0.0,WeatherDisplay:10.37,2013-05-02 16:06:00,
2013-05-02 09:11:00,73.9,-1.4,29.97,ESE,112,3.5,3.5,5,0.00,CLR,OVC,0.00,0.0,WeatherDisplay:10.37,2013-05-02 16:11:00,
2013-05-02 09:16:00,74.5,-1.0,29.97,NE,45,4.9,4.9,5,0.00,CLR,OVC,0.00,0.0,WeatherDisplay:10.37,2013-05-02 16:16:00,
2013-05-02 09:21:00,75.6,-0.2,29.97,NW,315,4.6,4.6,5,0.00,CLR,OVC,0.00,0.0,WeatherDisplay:10.37,2013-05-02 16:21:00,
2013-05-02 09:26:00,75.7,-0.1,29.97,NW,315,6.9,6.9,5,0.00,CLR,OVC,0.00,0.0,WeatherDisplay:10.37,2013-05-02 16:26:00,
2013-05-02 09:31:00,76.5,0.4,29.97,North,0,3.5,3.5,5,0.00,CLR,OVC,0.00,0.0,WeatherDisplay:10.37,2013-05-02 16:31:00,
2013-05-02 09:36:00,77.4,1.1,29.97,NW,315,5.8,5.8,5,0.00,CLR,OVC,0.00,0.0,WeatherDisplay:10.37,2013-05-02 16:36:00,
2013-05-02 09:41:00,77.9,1.4,29.97,NE,45,4.9,4.9,5,0.00,CLR,OVC,0.00,0.0,WeatherDisplay:10.37,2013-05-02 16:41:00,
2013-05-02 09:46:00,78.1,1.6,29.96,NW,315,8.1,8.1,5,0.00,CLR,OVC,0.00,0.0,WeatherDisplay:10.37,2013-05-02 16:46:00,
2013-05-02 09:51:00,78.3,1.7,29.96,NNE,22,5.8,5.8,5,0.00,CLR,OVC,0.00,0.0,WeatherDisplay:10.37,2013-05-02 16:51:00,
2013-05-02 09:56:00,78.6,1.9,29.96,NNE,22,6.9,6.9,5,0.00,CLR,OVC,0.00,0.0,WeatherDisplay:10.37,2013-05-02 16:56:00,
2013-05-02 10:01:00,79.5,2.6,29.96,WNW,292,6.9,6.9,5,0.00,CLR,OVC,0.00,0.0,WeatherDisplay:10.37,2013-05-02 17:01:00,
2013-05-02 10:06:00,80.2,3.1,29.96,NE,45,8.3,8.3,5,0.00,CLR,OVC,0.00,0.0,WeatherDisplay:10.37,2013-05-02 17:06:00,
2013-05-02 10:11:00,80.6,3.3,29.96,South,180,7.1,7.1,5,0.00,CLR,OVC,0.00,0.0,WeatherDisplay:10.37,2013-05-02 17:11:00,
2013-05-02 10:16:00,80.8,3.5,29.96,NE,45,4.6,4.6,5,0.00,CLR,OVC,0.00,0.0,WeatherDisplay:10.37,2013-05-02 17:16:00,
2013-05-02 10:21:00,81.3,3.9,29.96,NNW,338,5.8,5.8,5,0.00,CLR,OVC,0.00,0.0,WeatherDisplay:10.37,2013-05-02 17:21:00,
2013-05-02 10:26:00,81.9,4.2,29.96,West,270,8.1,8.1,5,0.00,CLR,OVC,0.00,0.0,WeatherDisplay:10.37,2013-05-02 17:26:00,
2013-05-02 10:31:00,82.8,4.9,29.96,NNW,338,2.3,3.7,5,0.00,CLR,OVC,0.00,0.0,WeatherDisplay:10.37,2013-05-02 17:31:00,
2013-05-02 10:36:00,82.9,5.0,29.96,WNW,292,4.6,4.6,5,0.00,CLR,OVC,0.00,0.0,WeatherDisplay:10.37,2013-05-02 17:36:00,
2013-05-02 10:41:00,83.3,5.3,29.96,NW,315,6.9,6.9,5,0.00,CLR,OVC,0.00,0.0,WeatherDisplay:10.37,2013-05-02 17:41:00,
2013-05-02 10:46:00,83.3,5.3,29.96,WNW,292,6.9,6.9,5,0.00,CLR,OVC,0.00,0.0,WeatherDisplay:10.37,2013-05-02 17:46:00,
2013-05-02 10:51:00,83.3,5.3,29.96,NW,315,6.8,6.8,5,0.00,CLR,OVC,0.00,0.0,WeatherDisplay:10.37,2013-05-02 17:51:00,
2013-05-02 10:56:00,83.3,5.3,29.96,WSW,248,6.9,6.9,5,0.00,CLR,OVC,0.00,0.0,WeatherDisplay:10.37,2013-05-02 17:56:00,
2013-05-02 11:01:00,83.7,5.5,29.96,West,270,6.9,6.9,5,0.00,CLR,OVC,0.00,0.0,WeatherDisplay:10.37,2013-05-02 18:01:00,
2013-05-02 11:06:00,83.7,5.5,29.94,NNW,338,10.4,10.4,5,0.00,CLR,OVC,0.00,0.0,WeatherDisplay:10.37,2013-05-02 18:06:00,
2013-05-02 11:11:00,84.0,5.8,29.94,NW,315,9.2,9.2,5,0.00,CLR,OVC,0.00,0.0,WeatherDisplay:10.37,2013-05-02 18:11:00,
2013-05-02 11:16:00,84.4,6.0,29.94,NNW,338,6.9,6.9,5,0.00,CLR,OVC,0.00,0.0,WeatherDisplay:10.37,2013-05-02 18:16:00,
2013-05-02 11:21:00,85.1,6.5,29.94,NW,315,5.3,5.3,5,0.00,CLR,OVC,0.00,0.0,WeatherDisplay:10.37,2013-05-02 18:21:00,
2013-05-02 11:26:00,85.1,6.5,29.95,ENE,68,5.8,5.8,5,0.00,CLR,OVC,0.00,0.0,WeatherDisplay:10.37,2013-05-02 18:26:00,
2013-05-02 11:31:00,85.5,6.8,29.95,NNW,338,8.1,8.1,5,0.00,CLR,OVC,0.00,0.0,WeatherDisplay:10.37,2013-05-02 18:31:00,
2013-05-02 11:36:00,85.6,6.9,29.95,NNW,338,10.4,10.4,5,0.00,CLR,OVC,0.00,0.0,WeatherDisplay:10.37,2013-05-02 18:36:00,
2013-05-02 11:41:00,86.2,7.3,29.95,North,0,8.1,8.1,5,0.00,CLR,OVC,0.00,0.0,WeatherDisplay:10.37,2013-05-02 18:41:00,
2013-05-02 11:46:00,86.4,7.4,29.95,North,0,6.9,6.9,5,0.00,CLR,OVC,0.00,0.0,WeatherDisplay:10.37,2013-05-02 18:46:00,
2013-05-02 11:51:00,86.4,7.4,29.95,NW,315,6.9,6.9,5,0.00,CLR,OVC,0.00,0.0,WeatherDisplay:10.37,2013-05-02 18:51:00,
2013-05-02 11:56:00,86.9,7.8,29.95,NNE,22,8.1,8.1,5,0.00,CLR,OVC,0.00,0.0,WeatherDisplay:10.37,2013-05-02 18:56:00,
2013-05-02 12:01:00,87.1,7.9,29.95,NNW,338,2.3,4.7,5,0.00,CLR,OVC,0.00,0.0,WeatherDisplay:10.37,2013-05-02 19:01:00,
2013-05-02 12:06:00,87.1,7.9,29.94,NNW,338,3.8,4.7,5,0.00,CLR,OVC,0.00,0.0,WeatherDisplay:10.37,2013-05-02 19:06:00,
2013-05-02 12:11:00,89.1,9.3,29.94,NNW,338,4.8,4.8,5,0.00,CLR,OVC,0.00,0.0,WeatherDisplay:10.37,2013-05-02 19:11:00,
2013-05-02 12:16:00,89.1,9.3,29.94,NW,315,5.8,5.8,5,0.00,CLR,OVC,0.00,0.0,WeatherDisplay:10.37,2013-05-02 19:16:00,
2013-05-02 12:21:00,89.2,9.4,29.94,North,0,3.5,3.5,5,0.00,CLR,OVC,0.00,0.0,WeatherDisplay:10.37,2013-05-02 19:21:00,
2013-05-02 12:26:00,89.4,9.6,29.93,NNW,338,5.8,5.8,5,0.00,CLR,OVC,0.00,0.0,WeatherDisplay:10.37,2013-05-02 19:26:00,
2013-05-02 12:31:00,89.8,9.8,29.93,NNE,22,11.0,11.0,5,0.00,CLR,OVC,0.00,0.0,WeatherDisplay:10.37,2013-05-02 19:31:00,
2013-05-02 12:36:00,89.2,9.4,29.93,NE,45,6.9,6.9,5,0.00,CLR,OVC,0.00,0.0,WeatherDisplay:10.37,2013-05-02 19:36:00,
2013-05-02 12:41:00,89.8,9.8,29.93,NNW,338,5.5,5.5,5,0.00,CLR,OVC,0.00,0.0,WeatherDisplay:10.37,2013-05-02 19:41:00,
2013-05-02 12:46:00,90.0,9.9,29.92,WSW,248,3.5,3.6,5,0.00,CLR,OVC,0.00,0.0,WeatherDisplay:10.37,2013-05-02 19:46:00,
2013-05-02 12:51:00,90.0,9.9,29.92,NNE,22,3.5,3.7,5,0.00,CLR,OVC,0.00,0.0,WeatherDisplay:10.37,2013-05-02 19:51:00,
2013-05-02 12:56:00,90.1,10.1,29.92,NW,315,8.1,8.1,5,0.00,CLR,OVC,0.00,0.0,WeatherDisplay:10.37,2013-05-02 19:56:00,
2013-05-02 13:01:00,89.8,9.8,29.92,WSW,248,5.8,5.8,5,0.00,CLR,OVC,0.00,0.0,WeatherDisplay:10.37,2013-05-02 20:01:00,
2013-05-02 13:06:00,90.7,10.5,29.92,NW,315,3.5,4.1,5,0.00,CLR,OVC,0.00,0.0,WeatherDisplay:10.37,2013-05-02 20:06:00,
2013-05-02 13:11:00,91.0,10.7,29.92,NE,45,4.7,4.7,5,0.00,CLR,OVC,0.00,0.0,WeatherDisplay:10.37,2013-05-02 20:11:00,
2013-05-02 13:16:00,90.9,10.6,29.92,NNE,22,4.6,4.6,5,0.00,CLR,OVC,0.00,0.0,WeatherDisplay:10.37,2013-05-02 20:16:00,
2013-05-02 13:21:00,91.0,10.7,29.92,NNE,22,4.6,4.6,5,0.00,CLR,OVC,0.00,0.0,WeatherDisplay:10.37,2013-05-02 20:21:00,
2013-05-02 13:26:00,90.7,10.5,29.91,NW,315,3.5,4.1,5,0.00,CLR,OVC,0.00,0.0,WeatherDisplay:10.37,2013-05-02 20:26:00,
2013-05-02 13:31:00,90.9,10.6,29.91,NNW,338,4.9,4.9,5,0.00,CLR,OVC,0.00,0.0,WeatherDisplay:10.37,2013-05-02 20:31:00,
2013-05-02 13:36:00,91.2,10.8,29.91,NNW,338,5.8,5.8,5,0.00,CLR,OVC,0.00,0.0,WeatherDisplay:10.37,2013-05-02 20:36:00,
2013-05-02 13:41:00,91.9,11.3,29.91,NE,45,5.4,5.4,5,0.00,CLR,OVC,0.00,0.0,WeatherDisplay:10.37,2013-05-02 20:41:00,
2013-05-02 13:46:00,92.1,11.5,29.91,SSE,158,5.9,5.9,5,0.00,CLR,OVC,0.00,0.0,WeatherDisplay:10.37,2013-05-02 20:46:00,
2013-05-02 13:51:00,91.8,11.2,29.91,North,0,5.1,5.1,5,0.00,CLR,OVC,0.00,0.0,WeatherDisplay:10.37,2013-05-02 20:51:00,
2013-05-02 13:56:00,92.5,11.7,29.91,WNW,292,3.7,3.9,5,0.00,CLR,OVC,0.00,0.0,WeatherDisplay:10.37,2013-05-02 20:56:00,
2013-05-02 14:01:00,93.0,12.1,29.91,NE,45,3.5,3.5,5,0.00,CLR,OVC,0.00,0.0,WeatherDisplay:10.37,2013-05-02 21:01:00,
2013-05-02 14:06:00,93.0,12.1,29.91,NNW,338,5.8,5.8,5,0.00,CLR,OVC,0.00,0.0,WeatherDisplay:10.37,2013-05-02 21:06:00,
2013-05-02 14:11:00,92.7,11.8,29.91,NNE,22,4.6,4.6,5,0.00,CLR,OVC,0.00,0.0,WeatherDisplay:10.37,2013-05-02 21:11:00,
2013-05-02 14:16:00,92.1,11.5,29.91,NNW,338,5.8,5.8,5,0.00,CLR,OVC,0.00,0.0,WeatherDisplay:10.37,2013-05-02 21:16:00,
2013-05-02 14:21:00,92.7,11.8,29.91,NNE,22,5.8,5.8,5,0.00,CLR,OVC,0.00,0.0,WeatherDisplay:10.37,2013-05-02 21:21:00,
2013-05-02 14:27:00,93.2,12.2,29.90,NNE,22,3.5,3.5,5,0.00,CLR,OVC,0.00,0.0,WeatherDisplay:10.37,2013-05-02 21:27:00,
2013-05-02 14:32:00,93.2,12.2,29.90,NW,315,3.5,3.5,5,0.00,CLR,OVC,0.00,0.0,WeatherDisplay:10.37,2013-05-02 21:32:00,
2013-05-02 14:37:00,92.8,12.0,29.90,WSW,248,8.1,8.1,5,0.00,CLR,OVC,0.00,0.0,WeatherDisplay:10.37,2013-05-02 21:37:00,
2013-05-02 14:42:00,92.5,11.7,29.90,NW,315,4.6,4.6,5,0.00,CLR,OVC,0.00,0.0,WeatherDisplay:10.37,2013-05-02 21:42:00,
2013-05-02 14:47:00,93.4,12.4,29.90,NNW,338,8.1,8.1,5,0.00,CLR,OVC,0.00,0.0,WeatherDisplay:10.37,2013-05-02 21:47:00,
2013-05-02 14:52:00,93.4,12.4,29.90,North,0,3.5,3.5,5,0.00,CLR,OVC,0.00,0.0,WeatherDisplay:10.37,2013-05-02 21:52:00,
2013-05-02 14:57:00,93.6,12.5,29.90,NW,315,2.3,3.0,5,0.00,CLR,OVC,0.00,0.0,WeatherDisplay:10.37,2013-05-02 21:57:00,
2013-05-02 15:02:00,93.9,12.7,29.90,West,270,5.8,5.8,5,0.00,CLR,OVC,0.00,0.0,WeatherDisplay:10.37,2013-05-02 22:02:00,
2013-05-02 15:07:00,93.7,12.6,29.88,NNE,22,3.5,3.5,5,0.00,CLR,OVC,0.00,0.0,WeatherDisplay:10.37,2013-05-02 22:07:00,
2013-05-02 15:12:00,93.4,12.4,29.88,WNW,292,4.6,4.6,5,0.00,CLR,OVC,0.00,0.0,WeatherDisplay:10.37,2013-05-02 22:12:00,
2013-05-02 15:17:00,93.7,12.6,29.88,NW,315,5.8,5.8,5,0.00,CLR,OVC,0.00,0.0,WeatherDisplay:10.37,2013-05-02 22:17:00,
2013-05-02 15:22:00,93.9,12.7,29.88,North,0,2.3,2.9,5,0.00,CLR,OVC,0.00,0.0,WeatherDisplay:10.37,2013-05-02 22:22:00,
2013-05-02 15:27:00,93.7,12.6,29.88,WSW,248,4.6,4.6,5,0.00,CLR,OVC,0.00,0.0,WeatherDisplay:10.37,2013-05-02 22:27:00,
2013-05-02 15:32:00,93.9,12.7,29.88,West,270,5.8,5.8,5,0.00,CLR,OVC,0.00,0.0,WeatherDisplay:10.37,2013-05-02 22:32:00,
2013-05-02 15:37:00,93.9,12.7,29.88,NNE,22,4.6,4.6,5,0.00,CLR,OVC,0.00,0.0,WeatherDisplay:10.37,2013-05-02 22:37:00,
2013-05-02 15:42:00,94.3,13.0,29.88,ESE,112,3.5,3.5,5,0.00,CLR,OVC,0.00,0.0,WeatherDisplay:10.37,2013-05-02 22:42:00,
2013-05-02 15:47:00,94.3,13.0,29.87,NNW,338,3.5,3.5,5,0.00,CLR,OVC,0.00,0.0,WeatherDisplay:10.37,2013-05-02 22:47:00,
2013-05-02 15:52:00,94.5,13.1,29.87,ENE,68,2.3,2.3,5,0.00,CLR,OVC,0.00,0.0,WeatherDisplay:10.37,2013-05-02 22:52:00,
2013-05-02 15:57:00,94.6,13.2,29.87,WSW,248,4.6,4.6,5,0.00,CLR,OVC,0.00,0.0,WeatherDisplay:10.37,2013-05-02 22:57:00,
2013-05-02 16:02:00,95.4,13.7,29.87,NNW,338,4.6,4.6,5,0.00,CLR,OVC,0.00,0.0,WeatherDisplay:10.37,2013-05-02 23:02:00,
2013-05-02 16:07:00,94.6,13.2,29.87,NNE,22,4.6,4.6,5,0.00,CLR,OVC,0.00,0.0,WeatherDisplay:10.37,2013-05-02 23:07:00,
2013-05-02 16:12:00,95.2,13.6,29.87,NNE,22,1.2,2.0,5,0.00,CLR,OVC,0.00,0.0,WeatherDisplay:10.37,2013-05-02 23:12:00,
2013-05-02 16:17:00,94.5,13.1,29.87,NNE,22,3.5,3.5,5,0.00,CLR,OVC,0.00,0.0,WeatherDisplay:10.37,2013-05-02 23:17:00,
2013-05-02 16:22:00,95.0,13.5,29.87,NW,315,2.3,2.3,5,0.00,CLR,OVC,0.00,0.0,WeatherDisplay:10.37,2013-05-02 23:22:00,
2013-05-02 16:27:00,94.5,13.1,29.86,NW,315,2.3,2.3,5,0.00,CLR,OVC,0.00,0.0,WeatherDisplay:10.37,2013-05-02 23:27:00,
2013-05-02 16:32:00,95.0,13.5,29.86,NW,315,2.3,2.3,5,0.00,CLR,OVC,0.00,0.0,WeatherDisplay:10.37,2013-05-02 23:32:00,
2013-05-02 16:37:00,93.9,12.7,29.86,West,270,4.6,4.6,5,0.00,CLR,OVC,0.00,0.0,WeatherDisplay:10.37,2013-05-02 23:37:00,
2013-05-02 16:42:00,94.5,13.1,29.86,SE,135,2.3,2.4,5,0.00,CLR,OVC,0.00,0.0,WeatherDisplay:10.37,2013-05-02 23:42:00,
2013-05-02 16:47:00,94.1,12.9,29.86,NNE,22,2.3,2.3,5,0.00,CLR,OVC,0.00,0.0,WeatherDisplay:10.37,2013-05-02 23:47:00,
2013-05-02 16:52:00,93.9,12.7,29.86,NNE,22,1.2,2.0,5,0.00,CLR,OVC,0.00,0.0,WeatherDisplay:10.37,2013-05-02 23:52:00,
2013-05-02 16:57:00,94.3,13.0,29.86,NNW,338,3.5,3.5,5,0.00,CLR,OVC,0.00,0.0,WeatherDisplay:10.37,2013-05-02 23:57:00,
2013-05-02 17:02:00,93.9,12.7,29.86,WNW,292,3.5,3.5,5,0.00,CLR,OVC,0.00,0.0,WeatherDisplay:10.37,2013-05-03 00:02:00,
2013-05-02 17:07:00,93.9,12.7,29.85,WSW,248,3.5,3.5,5,0.00,CLR,OVC,0.00,0.0,WeatherDisplay:10.37,2013-05-03 00:07:00,
2013-05-02 17:12:00,94.6,13.2,29.85,WSW,248,2.3,2.5,5,0.00,CLR,OVC,0.00,0.0,WeatherDisplay:10.37,2013-05-03 00:12:00,
2013-05-02 17:17:00,94.5,13.1,29.85,West,270,6.9,6.9,5,0.00,CLR,OVC,0.00,0.0,WeatherDisplay:10.37,2013-05-03 00:17:00,
2013-05-02 17:22:00,94.6,13.2,29.85,WSW,248,3.5,3.5,5,0.00,CLR,OVC,0.00,0.0,WeatherDisplay:10.37,2013-05-03 00:22:00,
2013-05-02 17:27:00,94.6,13.2,29.85,ESE,112,2.3,2.3,5,0.00,CLR,OVC,0.00,0.0,WeatherDisplay:10.37,2013-05-03 00:27:00,
2013-05-02 17:32:00,93.9,12.7,29.85,NW,315,1.2,1.8,5,0.00,CLR,OVC,0.00,0.0,WeatherDisplay:10.37,2013-05-03 00:32:00,
2013-05-02 17:37:00,93.7,12.6,29.85,West,270,1.5,1.6,5,0.00,CLR,OVC,0.00,0.0,WeatherDisplay:10.37,2013-05-03 00:37:00,
2013-05-02 17:42:00,93.4,12.4,29.85,NNE,22,2.3,2.3,5,0.00,CLR,OVC,0.00,0.0,WeatherDisplay:10.37,2013-05-03 00:42:00,
2013-05-02 17:47:00,92.8,12.0,29.84,WNW,292,3.5,3.5,5,0.00,CLR,OVC,0.00,0.0,WeatherDisplay:10.37,2013-05-03 00:47:00,
2013-05-02 17:52:00,92.5,11.7,29.84,West,270,1.2,1.8,5,0.00,CLR,OVC,0.00,0.0,WeatherDisplay:10.37,2013-05-03 00:52:00,
2013-05-02 17:57:00,92.5,11.7,29.84,NW,315,2.3,2.3,5,0.00,CLR,OVC,0.00,0.0,WeatherDisplay:10.37,2013-05-03 00:57:00,
2013-05-02 18:02:00,92.1,11.5,29.84,West,270,4.6,4.6,5,0.00,CLR,OVC,0.00,0.0,WeatherDisplay:10.37,2013-05-03 01:02:00,
2013-05-02 18:07:00,91.8,11.2,29.84,West,270,1.2,2.5,5,0.00,CLR,OVC,0.00,0.0,WeatherDisplay:10.37,2013-05-03 01:07:00,
2013-05-02 18:12:00,91.6,11.1,29.84,NW,315,2.3,2.3,5,0.00,CLR,OVC,0.00,0.0,WeatherDisplay:10.37,2013-05-03 01:12:00,
2013-05-02 18:17:00,91.4,11.0,29.84,West,270,3.5,3.5,5,0.00,CLR,OVC,0.00,0.0,WeatherDisplay:10.37,2013-05-03 01:17:00,
2013-05-02 18:22:00,91.0,10.7,29.84,WNW,292,1.2,1.7,5,0.00,CLR,OVC,0.00,0.0,WeatherDisplay:10.37,2013-05-03 01:22:00,
2013-05-02 18:27:00,91.0,10.7,29.83,West,270,2.4,2.4,5,0.00,CLR,OVC,0.00,0.0,WeatherDisplay:10.37,2013-05-03 01:27:00,
2013-05-02 18:32:00,90.5,10.3,29.83,SW,225,2.3,2.3,5,0.00,CLR,OVC,0.00,0.0,WeatherDisplay:10.37,2013-05-03 01:32:00,
2013-05-02 18:37:00,90.3,10.2,29.83,WSW,248,2.3,2.3,5,0.00,CLR,OVC,0.00,0.0,WeatherDisplay:10.37,2013-05-03 01:37:00,
2013-05-02 18:42:00,90.3,10.2,29.83,SW,225,4.6,4.6,5,0.00,CLR,OVC,0.00,0.0,WeatherDisplay:10.37,2013-05-03 01:42:00,
2013-05-02 18:47:00,90.1,10.1,29.83,SW,225,3.5,3.5,5,0.00,CLR,OVC,0.00,0.0,WeatherDisplay:10.37,2013-05-03 01:47:00,
2013-05-02 18:52:00,89.6,9.7,29.83,SW,225,2.3,2.4,5,0.00,CLR,OVC,0.00,0.0,WeatherDisplay:10.37,2013-05-03 01:52:00,
2013-05-02 18:57:00,89.2,9.4,29.83,SSW,202,2.3,2.3,5,0.00,CLR,OVC,0.00,0.0,WeatherDisplay:10.37,2013-05-03 01:57:00,
2013-05-02 19:02:00,88.9,9.2,29.83,WSW,248,1.2,2.1,5,0.00,CLR,OVC,0.00,0.0,WeatherDisplay:10.37,2013-05-03 02:02:00,
2013-05-02 19:07:00,88.5,8.9,29.82,WSW,248,3.5,3.5,5,0.00,CLR,OVC,0.00,0.0,WeatherDisplay:10.37,2013-05-03 02:07:00,
2013-05-02 19:12:00,88.2,8.7,29.82,WSW,248,2.3,2.5,5,0.00,CLR,OVC,0.00,0.0,WeatherDisplay:10.37,2013-05-03 02:12:00,
2013-05-02 19:17:00,88.0,8.6,29.82,WSW,248,2.3,2.3,5,0.00,CLR,OVC,0.00,0.0,WeatherDisplay:10.37,2013-05-03 02:17:00,
2013-05-02 19:22:00,87.6,8.3,29.82,SW,225,2.3,2.3,5,0.00,CLR,OVC,0.00,0.0,WeatherDisplay:10.37,2013-05-03 02:22:00,
2013-05-02 19:27:00,87.3,8.0,29.82,SSW,202,1.2,2.0,5,0.00,CLR,OVC,0.00,0.0,WeatherDisplay:10.37,2013-05-03 02:27:00,
2013-05-02 19:32:00,87.1,7.9,29.82,SW,225,0.0,1.2,5,0.00,CLR,OVC,0.00,0.0,WeatherDisplay:10.37,2013-05-03 02:32:00,
2013-05-02 19:37:00,86.7,7.7,29.82,West,270,0.0,0.7,5,0.00,CLR,OVC,0.00,0.0,WeatherDisplay:10.37,2013-05-03 02:37:00,
2013-05-02 19:42:00,86.4,7.4,29.82,SW,225,0.0,0.1,5,0.00,CLR,OVC,0.00,0.0,WeatherDisplay:10.37,2013-05-03 02:42:00,
2013-05-02 19:47:00,86.0,7.2,29.82,SW,225,0.0,0.1,5,0.00,CLR,OVC,0.00,0.0,WeatherDisplay:10.37,2013-05-03 02:47:00,
2013-05-02 19:52:00,85.5,6.8,29.82,ESE,112,0.0,0.0,5,0.00,CLR,OVC,0.00,0.0,WeatherDisplay:10.37,2013-05-03 02:52:00,
2013-05-02 19:57:00,85.1,6.5,29.82,NE,45,0.0,0.0,5,0.00,CLR,OVC,0.00,0.0,WeatherDisplay:10.37,2013-05-03 02:57:00,
2013-05-02 20:02:00,84.7,6.3,29.82,ENE,68,0.0,0.0,5,0.00,CLR,OVC,0.00,0.0,WeatherDisplay:10.37,2013-05-03 03:02:00,
2013-05-02 20:07:00,84.2,5.9,29.82,ENE,68,0.0,0.0,5,0.00,CLR,OVC,0.00,0.0,WeatherDisplay:10.37,2013-05-03 03:07:00,
2013-05-02 20:12:00,83.7,5.5,29.82,WNW,292,0.0,0.0,5,0.00,CLR,OVC,0.00,0.0,WeatherDisplay:10.37,2013-05-03 03:12:00,
2013-05-02 20:17:00,83.3,5.3,29.82,NW,315,0.0,0.0,5,0.00,CLR,OVC,0.00,0.0,WeatherDisplay:10.37,2013-05-03 03:17:00,
2013-05-02 20:22:00,82.6,4.7,29.82,East,90,5.8,5.8,5,0.00,CLR,OVC,0.00,0.0,WeatherDisplay:10.37,2013-05-03 03:22:00,
2013-05-02 20:27:00,82.2,4.5,29.83,WSW,248,5.8,5.8,5,0.00,CLR,OVC,0.00,0.0,WeatherDisplay:10.37,2013-05-03 03:27:00,
2013-05-02 20:32:00,82.0,4.4,29.83,WSW,248,4.6,4.6,5,0.00,CLR,OVC,0.00,0.0,WeatherDisplay:10.37,2013-05-03 03:32:00,
2013-05-02 20:37:00,81.7,4.1,29.83,WSW,248,2.5,3.1,5,0.00,CLR,OVC,0.00,0.0,WeatherDisplay:10.37,2013-05-03 03:37:00,
2013-05-02 20:42:00,81.3,3.9,29.83,SW,225,4.6,4.6,5,0.00,CLR,OVC,0.00,0.0,WeatherDisplay:10.37,2013-05-03 03:42:00,
2013-05-02 20:47:00,81.0,3.6,29.83,WSW,248,4.6,4.6,5,0.00,CLR,OVC,0.00,0.0,WeatherDisplay:10.37,2013-05-03 03:47:00,
2013-05-02 20:52:00,80.8,3.5,29.83,WSW,248,2.3,2.8,5,0.00,CLR,OVC,0.00,0.0,WeatherDisplay:10.37,2013-05-03 03:52:00,
2013-05-02 20:57:00,80.6,3.3,29.83,WSW,248,2.3,2.8,5,0.00,CLR,OVC,0.00,0.0,WeatherDisplay:10.37,2013-05-03 03:57:00,
2013-05-02 21:01:00,80.2,3.1,29.83,SW,225,3.5,3.5,5,0.00,CLR,OVC,0.00,0.0,WeatherDisplay:10.37,2013-05-03 04:01:00,
2013-05-02 21:06:00,80.1,3.0,29.83,NE,45,2.3,2.5,5,0.00,CLR,OVC,0.00,0.0,WeatherDisplay:10.37,2013-05-03 04:06:00,
2013-05-02 21:11:00,79.9,2.8,29.83,South,180,1.2,2.0,5,0.00,CLR,OVC,0.00,0.0,WeatherDisplay:10.37,2013-05-03 04:11:00,
2013-05-02 21:16:00,79.3,2.5,29.83,SW,225,3.5,3.5,5,0.00,CLR,OVC,0.00,0.0,WeatherDisplay:10.37,2013-05-03 04:16:00,
2013-05-02 21:21:00,79.2,2.3,29.83,SW,225,2.3,2.3,5,0.00,CLR,OVC,0.00,0.0,WeatherDisplay:10.37,2013-05-03 04:21:00,
2013-05-02 21:26:00,78.6,1.9,29.83,SW,225,4.6,4.6,5,0.00,CLR,OVC,0.00,0.0,WeatherDisplay:10.37,2013-05-03 04:26:00,
2013-05-02 21:31:00,78.4,1.8,29.83,SW,225,3.5,3.5,5,0.00,CLR,OVC,0.00,0.0,WeatherDisplay:10.37,2013-05-03 04:31:00,
2013-05-02 21:36:00,78.3,1.7,29.83,SW,225,2.3,2.3,5,0.00,CLR,OVC,0.00,0.0,WeatherDisplay:10.37,2013-05-03 04:36:00,
2013-05-02 21:41:00,78.1,1.6,29.83,West,270,1.2,1.7,5,0.00,CLR,OVC,0.00,0.0,WeatherDisplay:10.37,2013-05-03 04:41:00,
2013-05-02 21:46:00,77.7,1.3,29.84,WSW,248,0.0,0.6,5,0.00,CLR,OVC,0.00,0.0,WeatherDisplay:10.37,2013-05-03 04:46:00,
2013-05-02 21:51:00,77.4,1.1,29.84,SSW,202,1.2,1.2,5,0.00,CLR,OVC,0.00,0.0,WeatherDisplay:10.37,2013-05-03 04:51:00,
2013-05-02 21:56:00,77.0,0.8,29.84,SSW,202,2.3,2.3,5,0.00,CLR,OVC,0.00,0.0,WeatherDisplay:10.37,2013-05-03 04:56:00,
2013-05-02 22:01:00,76.6,0.5,29.84,SSE,158,1.6,1.6,5,0.00,CLR,OVC,0.00,0.0,WeatherDisplay:10.37,2013-05-03 05:01:00,
2013-05-02 22:06:00,76.5,0.4,29.84,SW,225,1.5,1.5,5,0.00,CLR,OVC,0.00,0.0,WeatherDisplay:10.37,2013-05-03 05:06:00,
2013-05-02 22:11:00,76.3,0.3,29.84,SE,135,0.0,0.7,5,0.00,CLR,OVC,0.00,0.0,WeatherDisplay:10.37,2013-05-03 05:11:00,
2013-05-02 22:16:00,75.9,0.0,29.84,South,180,1.2,1.2,5,0.00,CLR,OVC,0.00,0.0,WeatherDisplay:10.37,2013-05-03 05:16:00,
2013-05-02 22:21:00,75.4,-0.4,29.84,South,180,1.2,1.2,5,0.00,CLR,OVC,0.00,0.0,WeatherDisplay:10.37,2013-05-03 05:21:00,
2013-05-02 22:26:00,75.2,-0.5,29.84,SSW,202,2.3,2.3,5,0.00,CLR,OVC,0.00,0.0,WeatherDisplay:10.37,2013-05-03 05:26:00,
2013-05-02 22:31:00,75.0,-0.6,29.84,SSE,158,2.3,2.3,5,0.00,CLR,OVC,0.00,0.0,WeatherDisplay:10.37,2013-05-03 05:31:00,
2013-05-02 22:36:00,74.7,-0.9,29.84,South,180,1.2,1.2,5,0.00,CLR,OVC,0.00,0.0,WeatherDisplay:10.37,2013-05-03 05:36:00,
2013-05-02 22:41:00,74.5,-1.0,29.84,South,180,2.3,2.3,5,0.00,CLR,OVC,0.00,0.0,WeatherDisplay:10.37,2013-05-03 05:41:00,
2013-05-02 22:46:00,73.9,-1.4,29.83,South,180,2.3,2.3,5,0.00,CLR,OVC,0.00,0.0,WeatherDisplay:10.37,2013-05-03 05:46:00,
2013-05-02 22:51:00,73.8,-1.5,29.83,South,180,1.5,1.5,5,0.00,CLR,OVC,0.00,0.0,WeatherDisplay:10.37,2013-05-03 05:51:00,
2013-05-02 22:56:00,73.4,-1.8,29.83,South,180,0.0,0.3,5,0.00,CLR,OVC,0.00,0.0,WeatherDisplay:10.37,2013-05-03 05:56:00,
2013-05-02 23:01:00,73.0,-2.0,29.83,South,180,1.3,1.3,5,0.00,CLR,OVC,0.00,0.0,WeatherDisplay:10.37,2013-05-03 06:01:00,
2013-05-02 23:06:00,73.0,-2.0,29.84,South,180,0.0,0.0,5,0.00,CLR,OVC,0.00,0.0,WeatherDisplay:10.37,2013-05-03 06:06:00,
2013-05-02 23:11:00,72.7,-2.3,29.84,SW,225,0.0,0.0,5,0.00,CLR,OVC,0.00,0.0,WeatherDisplay:10.37,2013-05-03 06:11:00,
2013-05-02 23:16:00,72.3,-2.5,29.84,SE,135,0.0,0.0,5,0.00,CLR,OVC,0.00,0.0,WeatherDisplay:10.37,2013-05-03 06:16:00,
2013-05-02 23:21:00,72.1,-2.7,29.84,South,180,0.0,0.0,5,0.00,CLR,OVC,0.00,0.0,WeatherDisplay:10.37,2013-05-03 06:21:00,
2013-05-02 23:26:00,71.8,-2.9,29.84,SE,135,0.0,0.0,5,0.00,CLR,OVC,0.00,0.0,WeatherDisplay:10.37,2013-05-03 06:26:00,
2013-05-02 23:31:00,71.6,-3.0,29.84,SE,135,0.0,0.0,5,0.00,CLR,OVC,0.00,0.0,WeatherDisplay:10.37,2013-05-03 06:31:00,
2013-05-02 23:36:00,71.2,-3.3,29.84,SSW,202,1.6,1.6,5,0.00,CLR,OVC,0.00,0.0,WeatherDisplay:10.37,2013-05-03 06:36:00,
2013-05-02 23:41:00,71.1,-3.4,29.84,SSW,202,0.0,0.1,5,0.00,CLR,OVC,0.00,0.0,WeatherDisplay:10.37,2013-05-03 06:41:00,
2013-05-02 23:46:00,70.7,-3.7,29.83,ESE,112,0.0,0.1,5,0.00,CLR,OVC,0.00,0.0,WeatherDisplay:10.37,2013-05-03 06:46:00,
2013-05-02 23:51:00,70.5,-3.8,29.83,ESE,112,0.0,0.0,5,0.00,CLR,OVC,0.00,0.0,WeatherDisplay:10.37,2013-05-03 06:51:00,
2013-05-02 23:56:00,70.3,-3.9,29.83,SW,225,0.0,0.1,5,0.00,CLR,OVC,0.00,0.0,WeatherDisplay:10.37,2013-05-03 06:56:00,